NOAA 16 DEB

Satellite information

Favourite Embed

Satellite Type and Status

DEBRISIN ORBIT

Key statistics

Satellite NOAA 16 DEB at a glance.

Uptime

9118

Days in orbit

Revolutions

≈ 14.7

Per day

Orbit

SSO

Sun Synchronous Orbit

Inclination

98.7

Latest

Satellite identification and parameters

Extended collection of information and parameters for NOAA 16 DEB.

Object identification

Identified? True

Debris? True

Object name: NOAA 16 DEB

International designator: 2000-055QM

Object number (NORAD): 42345

Object ID (CCSDS): 42345

Country: UNITED STATES OF AMERICA (US)

Current information (Y/N): Y

RCS size: SMALL

Orbital parameters

Period: 98.144 minutes

Inclination: 98.714 deg

SMA: 7048.04 km

Apoapsis: 690.045 km

Periapsis: 649.764 km

RAAN: 11.4663 deg

Eccentricy: 0.00285759

Argument of periapsis: 174.1944 deg

Mean anomaly: 185.9595 deg

Mean motion: 14.67236891 rev/day

Mean motion (dot): 0.00058864 rev/day2

B* drag term: 0.010307772 1/REarth

Two-line elements (TLE)

Creation date: Sept. 3, 2025, 2:21 a.m.

Reference frame: TEME

Reference center: EARTH

Epoch: Sept. 2, 2025, 2:52 p.m. UTC

TLE line 0: 0 NOAA 16 DEB

TLE line 1: 1 42345U 00055QM 25245.61971791 .00058864 00000-0 10308-1 0 9991

TLE line 2: 2 42345 98.7140 11.4663 0028576 174.1944 185.9595 14.67236891488018

Live tracking on map

Real-time ground track for satellite NOAA 16 DEB.

In-orbit conjunctions

A list of the most updated potential collisions computed for object NOAA 16 DEB.

Target Orbit TCA Probability of collision Miss distance Type
IRIDIUM 33 DEB LEO 2024-11-15 02:02:29 0.0004552588 678.0 (m) DEBRIS
FENGYUN 1C DEB SSO 2024-07-19 03:52:42 0.0001053122 55.0 (m) DEBRIS

Associated space launch

The NOAA K, L and M POES satellites begin the fifth generation of improved environmental monitoring in support of NOAA missions. The instrument payload has significant improvements and additions/deletions. The instrument changes have effected the spacecraft subsystems and data formats.

NOAA 16 DEB was lifted into orbit during the mission ‘Titan II SLV | NOAA 16’, on board a Titan II SLV space rocket.

The launch took place on Sept. 21, 2000, 10:22 a.m. from Space Launch Complex 4W.

For more information about the launch, click the button.

Launch to space Titan II SLV | NOAA 16
Titan II SLV | NOAA 16

Agency: N/A

Status: Launch Successful

Launch date: Sept. 21, 2000, 10:22 a.m. UTC

Rocket: Titan II SLV

Launch pad: Space Launch Complex 4W

Location: Vandenberg SFB, CA, USA

...

Latest news about this satellite

There are no fresh news available about this satellite. Check back as we update our databases every day.


Newsletter sign-up

Weekly statistics, charts and insights to help you stay on top of the space industry.